Location: Thompson
(55.7500°N, 97.8670°W)
Time: 15:45:47
(UTC-05:00)

Amateur Radio Satellites - All Passes

Search period start: 30 August 2016 15:15
Search period end: 31 August 2016 15:15
Location: Thompson, 55.7500°N, 97.8670°W

Satellite Date Start Highest point End Downlink Frequencies (MHz)
Time Altitude Azimuth
AUBIESAT-1 30 Aug 15:16:27 15:19:11 17° 316° (NW) 15:21:48 437.475
UKube-1 30 Aug 15:21:29 15:25:16 30° 300° (WNW) 15:29:02 .
ITAMSAT 1 30 Aug 15:23:22 15:28:34 85° 253° (WSW) 15:33:47 435.822/435.867
M-CUBED/EXP-1 PRIME 30 Aug 15:25:14 15:27:32 14° 320° (NW) 15:29:45 437.505
AISAT 30 Aug 15:30:22 15:33:22 18° 308° (NW) 15:36:20 437.250
O/OREOS (USA 219) 30 Aug 15:30:36 15:35:06 63° 306° (NW) 15:39:39 437.305
BEESAT 2 30 Aug 15:35:00 15:38:20 24° 11° (N) 15:41:39 435.950
ESTCUBE 1 30 Aug 15:36:13 15:37:57 12° 314° (NW) 15:39:41 437.505/2401.250
Gurwin Techsat 1B 30 Aug 15:39:09 15:43:44 29° 268° (W) 15:48:21 435.225
Oscar 19 30 Aug 15:44:57 15:47:50 15° 276° (W) 15:50:44 437.125/150
HO-68 30 Aug 15:45:58 15:46:54 10° 7° (N) 15:47:49 435.675
SWISSCUBE 30 Aug 15:46:19 15:50:54 44° 99° (E) 15:55:28 437.505
BEESAT 3 30 Aug 15:46:54 15:50:25 29° 20° (NNE) 15:53:57 437.485
HORYU 2 30 Aug 15:48:48 15:51:43 17° 52° (NE) 15:54:38 437.375
BRITE-PL 30 Aug 15:49:58 15:52:25 13° 42° (NE) 15:54:53 437.365/2234.400
MOZHAYETS 4 30 Aug 15:50:33 15:51:28 11° 81° (E) 15:52:23
Cosmos 2499 30 Aug 16:00:44 16:05:55 19° 314° (NW) 16:10:54 435.465 / 435.565
BEESAT 30 Aug 16:03:02 16:07:45 55° 101° (ESE) 16:12:26 436.000
SPROUT 30 Aug 16:14:20 16:16:16 13° 311° (NW) 16:18:13 437.525
PCSat 30 Aug 16:16:27 16:20:59 26° 352° (N) 16:25:31 145.827
NOAA 18 30 Aug 16:17:53 16:20:30 14° 39° (NE) 16:23:06 137.9125
TISAT 1 30 Aug 16:20:24 16:24:03 29° 299° (WNW) 16:27:39 437.305
DX 1 30 Aug 16:25:17 16:26:12 11° 316° (NW) 16:27:06 434.975-435.025
AIST 2 30 Aug 16:34:49 16:38:15 24° 354° (N) 16:41:41 435.215
Cubesat XI-IV 30 Aug 16:38:53 16:42:10 17° 46° (NE) 16:45:28 437.490
NOAA 15 30 Aug 16:39:48 16:43:29 20° 48° (NE) 16:47:12 137.62
AO-7 30 Aug 16:45:51 16:53:57 52° 259° (WSW) 17:02:05 29.400- 29.500
GOMX 1 30 Aug 16:46:22 16:49:48 17° 48° (NE) 16:53:18 467.674
CUTE-I 30 Aug 16:49:12 16:52:50 19° 48° (NE) 16:56:29 437.470
ITUPSAT 1 30 Aug 16:52:45 16:57:29 64° 291° (WNW) 17:02:13 437.325
Cosmos 2491 30 Aug 16:53:04 16:58:30 19° 68° (ENE) 17:03:58 435.465 / 435.565
KKS-1 30 Aug 16:56:07 16:59:59 27° 94° (E) 17:03:48 437.445
YUBILEINY 30 Aug 16:57:10 17:05:42 51° 65° (ENE) 17:14:09 435.215
Cosmos 2504 30 Aug 17:04:53 17:10:43 24° 51° (NE) 17:16:23 435.465 / 435.565
ITAMSAT 1 30 Aug 17:05:28 17:08:51 17° 274° (W) 17:12:15 435.822/435.867
GONETS M04 30 Aug 17:12:00 17:16:02 13° 338° (NNW) 17:20:05
O/OREOS (USA 219) 30 Aug 17:12:11 17:15:25 19° 330° (NNW) 17:18:41 437.305
BEESAT 2 30 Aug 17:12:58 17:16:55 52° 34° (NE) 17:20:51 435.950
CUBESAT XI-V 30 Aug 17:18:31 17:20:20 12° 82° (E) 17:22:07 437.345
STARS 30 Aug 17:23:09 17:26:53 26° 93° (E) 17:30:35 437.465
HORYU 2 30 Aug 17:23:13 17:27:41 85° 71° (ENE) 17:32:10 437.375
SWISSCUBE 30 Aug 17:24:19 17:28:39 35° 299° (WNW) 17:32:57 437.505
BEESAT 3 30 Aug 17:24:33 17:28:33 89° 42° (NE) 17:32:32 437.485
BRITE-PL 30 Aug 17:24:41 17:29:35 45° 64° (ENE) 17:34:51 437.365/2234.400
MOZHAYETS 4 30 Aug 17:25:03 17:29:37 61° 102° (ESE) 17:34:09
HO-68 30 Aug 17:27:23 17:31:57 18° 33° (NNE) 17:36:31 435.675
LilacSat-2 30 Aug 17:38:59 17:42:06 24° 61° (ENE) 17:45:14 437.200
BEESAT 30 Aug 17:41:13 17:45:20 29° 302° (WNW) 17:49:25 436.000
NOAA 18 30 Aug 17:54:44 17:59:57 45° 61° (ENE) 18:05:12 137.9125
PCSat 30 Aug 18:01:10 18:05:56 29° 18° (NNE) 18:10:40 145.827
DOVE 4 30 Aug 18:12:26 18:17:08 33° 60° (ENE) 18:21:51 437.250
AIST 2 30 Aug 18:14:08 18:17:49 29° 18° (NNE) 18:21:31 435.215
Cubesat XI-IV 30 Aug 18:16:05 18:21:21 62° 67° (ENE) 18:26:38 437.490
NOAA 15 30 Aug 18:17:16 18:22:32 76° 70° (ENE) 18:27:51 137.62
CANX-2 30 Aug 18:21:32 18:22:56 11° 49° (NE) 18:24:20 2200.000
GOMX 1 30 Aug 18:21:41 18:26:56 64° 69° (ENE) 18:32:24 467.674
CUTE-I 30 Aug 18:26:49 18:32:08 74° 69° (ENE) 18:37:28 437.470
CUTE 1.7 + AOD 2 30 Aug 18:26:59 18:28:22 11° 49° (NE) 18:29:44 437.475
CINEMA 3 30 Aug 18:30:42 18:34:04 19° 53° (NE) 18:37:23 145.822/145.860
ITUPSAT 1 30 Aug 18:31:48 18:34:31 15° 312° (NW) 18:37:13 437.325
KKS-1 30 Aug 18:32:27 18:36:48 50° 293° (WNW) 18:41:06 437.445
Cosmos 2491 30 Aug 18:45:01 18:53:34 64° 93° (E) 19:02:14 435.465 / 435.565
AO-7 30 Aug 18:45:03 18:48:55 14° 283° (WNW) 18:52:49 29.400- 29.500
BEESAT 2 30 Aug 18:50:59 18:54:39 35° 235° (SW) 18:58:19 435.950
CUBESAT XI-V 30 Aug 18:53:56 18:58:38 67° 102° (ESE) 19:03:20 437.345
YUBILEINY 30 Aug 18:54:15 19:02:43 54° 270° (W) 19:11:05 435.215
O/OREOS (USA 219) 30 Aug 18:55:37 18:56:43 11° 355° (N) 18:57:49 437.305
Cosmos 2504 30 Aug 18:58:03 19:05:24 82° 76° (ENE) 19:12:35 435.465 / 435.565
STARS 30 Aug 18:59:13 19:03:31 51° 293° (WNW) 19:07:46 437.465
HORYU 2 30 Aug 19:02:01 19:04:52 16° 272° (W) 19:07:42 437.375
MOZHAYETS 4 30 Aug 19:02:44 19:06:30 25° 302° (WNW) 19:10:15
BEESAT 3 30 Aug 19:03:00 19:05:44 18° 243° (WSW) 19:08:27 437.485
BRITE-PL 30 Aug 19:03:21 19:08:10 40° 266° (W) 19:13:20 437.365/2234.400
HO-68 30 Aug 19:11:21 19:18:10 48° 57° (ENE) 19:24:58 435.675
LilacSat-2 30 Aug 19:12:32 19:16:14 46° 261° (W) 19:19:56 437.200
GONETS M04 30 Aug 19:15:27 19:18:18 12° 13° (NNE) 19:21:10
AIST 1 30 Aug 19:23:28 19:26:57 22° 61° (ENE) 19:30:24
SEEDS 30 Aug 19:26:19 19:29:39 24° 59° (ENE) 19:33:00 437.485
NOAA 18 30 Aug 19:35:28 19:40:42 42° 261° (W) 19:45:58 137.9125
FUNcube-1 30 Aug 19:38:57 19:40:10 11° 48° (NE) 19:41:23 145.935
PCSat 30 Aug 19:44:49 19:50:15 66° 42° (NE) 19:55:39 145.827
AAUSAT CUBESAT 2 30 Aug 19:47:48 19:51:01 22° 59° (ENE) 19:54:15 437.432
DOVE 4 30 Aug 19:49:24 19:54:36 57° 260° (W) 19:59:52 437.250
AIST 2 30 Aug 19:52:40 19:56:53 77° 41° (NE) 20:01:04 435.215
UWE-3 30 Aug 19:53:07 19:56:21 20° 56° (NE) 19:59:31 435.000/436.395/437.385
CANX-2 30 Aug 19:53:50 19:57:57 55° 69° (ENE) 20:02:05 2200.000
Cubesat XI-IV 30 Aug 19:57:16 20:01:50 28° 268° (W) 20:06:26 437.490
STRAND 1 30 Aug 19:57:29 20:01:32 23° 90° (E) 20:05:32 437.568
COMPASS 1 30 Aug 19:58:42 20:02:23 32° 63° (ENE) 20:06:05 437.405
NOAA 15 30 Aug 19:58:48 20:02:55 23° 270° (W) 20:07:04 137.62
CUTE 1.7 + AOD 2 30 Aug 19:59:15 20:03:22 55° 69° (ENE) 20:07:30 437.475
ZACube-1 30 Aug 20:00:33 20:03:18 17° 54° (NE) 20:06:00 437.345
GOMX 1 30 Aug 20:00:52 20:05:26 29° 270° (W) 20:10:10 467.674
CUBEBUG 2 30 Aug 20:01:45 20:05:44 30° 62° (ENE) 20:09:38 437.445
CINEMA 3 30 Aug 20:05:34 20:10:34 81° 73° (ENE) 20:15:28 145.822/145.860
CUTE-I 30 Aug 20:08:30 20:12:44 24° 270° (W) 20:17:01 437.470
KKS-1 30 Aug 20:10:52 20:12:25 12° 315° (NW) 20:13:58 437.445
CUBESAT XI-V 30 Aug 20:31:53 20:35:41 25° 303° (WNW) 20:39:28 437.345
O/OREOS (USA 219) 30 Aug 20:35:45 20:38:12 14° 21° (NNE) 20:40:40 437.305
STARS 30 Aug 20:37:24 20:38:57 12° 314° (NW) 20:40:30 437.465
Cosmos 2491 30 Aug 20:42:43 20:50:57 44° 298° (WNW) 20:59:17 435.465 / 435.565
Cosmos 2504 30 Aug 20:52:12 20:57:59 26° 281° (W) 21:03:40 435.465 / 435.565
YUBILEINY 30 Aug 20:52:57 20:57:25 15° 295° (WNW) 21:01:54 435.215
DELFI C3 30 Aug 20:57:51 21:00:51 21° 59° (ENE) 21:03:53 145.870
HO-68 30 Aug 20:58:51 21:05:53 54° 259° (W) 21:12:57 435.675
Oscar 11 30 Aug 20:59:16 21:03:21 43° 66° (ENE) 21:07:27 145.826/435.025
AIST 1 30 Aug 21:00:36 21:04:59 63° 263° (W) 21:09:19
SEEDS 30 Aug 21:01:00 21:05:05 57° 259° (W) 21:09:14 437.485
FUNcube-1 30 Aug 21:11:19 21:15:33 51° 68° (ENE) 21:19:43 145.935
GONETS M04 30 Aug 21:12:33 21:19:33 25° 46° (NE) 21:26:31
AAUSAT CUBESAT 2 30 Aug 21:22:08 21:26:12 59° 259° (WSW) 21:30:19 437.432
AUBIESAT-1 30 Aug 21:26:41 21:29:37 17° 44° (NE) 21:32:31 437.475
UWE-3 30 Aug 21:27:53 21:32:23 78° 257° (WSW) 21:36:47 435.000/436.395/437.385
PCSat 30 Aug 21:28:32 21:33:24 34° 244° (WSW) 21:38:15 145.827
CANX-2 30 Aug 21:30:49 21:34:08 22° 269° (W) 21:37:30 2200.000
DOVE 4 30 Aug 21:31:34 21:33:27 12° 281° (W) 21:35:20 437.250
AIST 2 30 Aug 21:31:40 21:34:59 23° 241° (WSW) 21:38:18 435.215
COMPASS 1 30 Aug 21:34:01 21:37:54 38° 263° (W) 21:41:49 437.405
ZACube-1 30 Aug 21:34:37 21:39:01 85° 74° (ENE) 21:43:20 437.345
M-CUBED/EXP-1 PRIME 30 Aug 21:34:41 21:38:13 22° 48° (NE) 21:41:41 437.505
STRAND 1 30 Aug 21:36:08 21:41:15 73° 290° (WNW) 21:46:21 437.568
CUTE 1.7 + AOD 2 30 Aug 21:36:12 21:39:32 22° 269° (W) 21:42:53 437.475
CUBEBUG 2 30 Aug 21:37:46 21:42:14 48° 261° (W) 21:46:35 437.445
CINEMA 3 30 Aug 21:44:38 21:48:16 20° 272° (W) 21:51:51 145.822/145.860
HUMSAT D 30 Aug 21:51:06 21:54:50 34° 64° (ENE) 21:58:33 437.325/437.525
Cosmos 2499 30 Aug 21:51:59 21:57:37 24° 52° (NE) 22:03:10 435.465 / 435.565
PRISM 30 Aug 21:52:27 21:56:09 30° 95° (E) 21:59:51 437.425
ESTCUBE 1 30 Aug 21:53:52 21:56:00 13° 48° (NE) 21:58:08 437.505/2401.250
O/OREOS (USA 219) 30 Aug 22:14:41 22:18:58 36° 45° (NE) 22:23:14 437.305
CUBEBUG 1 30 Aug 22:26:39 22:29:23 16° 52° (NE) 22:32:09 437.445
DELFI C3 30 Aug 22:31:30 22:35:24 59° 259° (W) 22:39:21 145.870
VELOX 1 30 Aug 22:33:47 22:36:35 17° 51° (NE) 22:39:23 145.980
Oscar 11 30 Aug 22:35:51 22:39:39 29° 266° (W) 22:43:28 145.826/435.025
DX 1 30 Aug 22:39:41 22:41:58 14° 49° (NE) 22:44:17 434.975-435.025
AIST 1 30 Aug 22:41:19 22:41:40 10° 283° (WNW) 22:42:01
Cosmos 2491 30 Aug 22:45:33 22:50:49 17° 328° (NNW) 22:56:08 435.465 / 435.565
ANTELSAT 30 Aug 22:46:08 22:48:47 16° 87° (E) 22:51:25 437.575/2403.000
FUNcube-1 30 Aug 22:48:26 22:52:04 25° 268° (W) 22:55:38 145.935
HO-68 30 Aug 22:52:00 22:55:22 14° 282° (WNW) 22:58:44 435.675
AUBIESAT-1 30 Aug 22:58:48 23:03:25 68° 63° (ENE) 23:07:55 437.475
UWE-3 30 Aug 23:07:26 23:09:34 13° 275° (W) 23:11:42 435.000/436.395/437.385
M-CUBED/EXP-1 PRIME 30 Aug 23:07:30 23:12:14 90° 83° (E) 23:16:53 437.505
GONETS M04 30 Aug 23:09:25 23:18:19 70° 73° (ENE) 23:27:09
CUSAT 1 30 Aug 23:10:04 23:12:43 19° 83° (E) 23:15:53 437.405
UKube-1 30 Aug 23:12:17 23:15:23 20° 54° (NE) 23:18:31 .
ZACube-1 30 Aug 23:13:14 23:15:54 16° 273° (W) 23:18:33 437.345
TIGRISAT 30 Aug 23:15:25 23:19:03 26° 93° (E) 23:22:38 435.000
STRAND 1 30 Aug 23:16:18 23:19:40 18° 312° (NW) 23:23:04 437.568
AISAT 30 Aug 23:21:27 23:25:31 35° 62° (ENE) 23:29:38 437.250
HUMSAT D 30 Aug 23:26:41 23:30:29 35° 264° (W) 23:34:17 437.325/437.525
ESTCUBE 1 30 Aug 23:27:33 23:31:58 59° 68° (ENE) 23:36:25 437.505/2401.250
PRISM 30 Aug 23:27:38 23:31:36 42° 295° (WNW) 23:35:33 437.425
Cosmos 2499 30 Aug 23:44:49 23:51:58 83° 77° (ENE) 23:59:06 435.465 / 435.565
UNISAT 6 30 Aug 23:44:58 23:49:10 48° 99° (E) 23:53:19 437.425
POPSAT HIP 1 30 Aug 23:46:51 23:47:55 11° 83° (E) 23:48:58 437.405
O/OREOS (USA 219) 30 Aug 23:54:06 23:58:32 47° 247° (WSW) 00:02:57 437.305
50 SAT 30 Aug 23:55:34 23:59:06 57° 71° (ENE) 00:02:40 437.505
CUBEBUG 1 31 Aug 00:00:36 00:05:01 79° 72° (ENE) 00:09:30 437.445
SPROUT 31 Aug 00:01:45 00:05:47 41° 65° (ENE) 00:09:51 437.525
VELOX 1 31 Aug 00:07:56 00:12:24 79° 71° (ENE) 00:16:54 145.980
DUCHIFAT 1 31 Aug 00:09:02 00:11:37 16° 87° (E) 00:14:10 145.980
TISAT 1 31 Aug 00:09:17 00:12:04 17° 54° (NE) 00:14:52 437.305
DX 1 31 Aug 00:13:04 00:17:24 66° 70° (ENE) 00:21:48 434.975-435.025
SO-50 31 Aug 00:15:33 00:20:09 44° 127° (SE) 00:24:42 436.795
QB50P2 31 Aug 00:16:31 00:19:46 21° 91° (E) 00:23:00 145.880/145.840
POLYITAN 1 31 Aug 00:19:01 00:22:16 21° 91° (E) 00:25:30 437.675
ANTELSAT 31 Aug 00:21:48 00:26:08 82° 289° (WNW) 00:30:24 437.575/2403.000
NANOSAT C BR1 31 Aug 00:24:09 00:27:29 22° 91° (E) 00:30:47 145.865
AUBIESAT-1 31 Aug 00:34:31 00:38:13 23° 262° (W) 00:41:52 437.475
DANDE 31 Aug 00:40:21 00:43:01 39° 95° (E) 00:46:15 436.750
M-CUBED/EXP-1 PRIME 31 Aug 00:44:08 00:47:19 18° 266° (W) 00:50:28 437.505
UKube-1 31 Aug 00:46:37 00:50:58 81° 254° (WSW) 00:55:21 .
BUGSAT 1 31 Aug 00:49:08 00:51:56 17° 89° (E) 00:54:43 437.445
CUSAT 1 31 Aug 00:50:38 00:54:08 51° 292° (WNW) 00:58:44 437.405
Cosmos 2491 31 Aug 00:51:04 00:52:51 11° 2° (N) 00:54:38 435.465 / 435.565
TIGRISAT 31 Aug 00:51:51 00:56:01 48° 293° (WNW) 01:00:06 435.000
ITUPSAT 1 31 Aug 00:54:10 00:56:47 15° 47° (NE) 00:59:23 437.325
JAS-2 31 Aug 00:54:22 01:00:29 35° 93° (E) 01:07:09 435.910
AISAT 31 Aug 00:57:46 01:01:59 40° 262° (W) 01:06:14 437.250
RS-15 31 Aug 01:01:01 01:10:59 35° 106° (ESE) 01:21:19 29.354- 29.394
ESTCUBE 1 31 Aug 01:05:31 01:09:08 24° 269° (W) 01:12:48 437.505/2401.250
GONETS M04 31 Aug 01:06:45 01:14:40 39° 277° (W) 01:22:35
QB50P1 31 Aug 01:09:56 01:14:08 56° 101° (E) 01:18:16 145.935-145.965
POPSAT HIP 1 31 Aug 01:20:18 01:24:33 69° 103° (ESE) 01:28:45 437.405
UNISAT 6 31 Aug 01:22:04 01:25:44 28° 300° (WNW) 01:29:22 437.425
SWISSCUBE 31 Aug 01:23:39 01:27:26 24° 55° (NE) 01:31:13 437.505
50 SAT 31 Aug 01:30:36 01:33:02 17° 270° (W) 01:35:29 437.505
SPROUT 31 Aug 01:37:58 01:41:50 32° 265° (W) 01:45:45 437.525
Cosmos 2499 31 Aug 01:38:45 01:44:18 26° 281° (W) 01:49:51 435.465 / 435.565
CUBEBUG 1 31 Aug 01:38:53 01:41:53 18° 272° (W) 01:44:54 437.445
BEESAT 31 Aug 01:39:59 01:44:03 28° 58° (ENE) 01:48:06 436.000
TISAT 1 31 Aug 01:42:55 01:47:11 90° 79° (ENE) 01:51:28 437.305
DUCHIFAT 1 31 Aug 01:43:39 01:47:53 82° 288° (WNW) 01:52:05 145.980
VELOX 1 31 Aug 01:46:23 01:49:26 18° 272° (W) 01:52:30 145.980
DX 1 31 Aug 01:50:42 01:54:02 21° 269° (W) 01:57:23 434.975-435.025
QB50P2 31 Aug 01:51:46 01:55:58 60° 291° (WNW) 02:00:07 145.880/145.840
POLYITAN 1 31 Aug 01:54:16 01:58:27 60° 291° (WNW) 02:02:36 437.675
SO-50 31 Aug 01:55:53 02:00:38 54° 328° (NNW) 02:05:19 436.795
NANOSAT C BR1 31 Aug 01:59:25 02:03:34 57° 291° (WNW) 02:07:41 145.865
ANTELSAT 31 Aug 01:59:36 02:02:14 16° 308° (NW) 02:04:50 437.575/2403.000
Oscar 19 31 Aug 02:06:38 02:10:49 24° 90° (E) 02:14:58 437.125/150
Gurwin Techsat 1B 31 Aug 02:08:02 02:10:40 14° 82° (E) 02:13:16 435.225
BUGSAT 1 31 Aug 02:23:39 02:27:50 72° 289° (WNW) 02:31:54 437.445
DANDE 31 Aug 02:24:07 02:26:11 17° 305° (NW) 02:28:34 436.750
UKube-1 31 Aug 02:25:39 02:27:45 13° 274° (W) 02:29:52 .
KKS-1 31 Aug 02:27:20 02:29:38 14° 48° (NE) 02:31:57 437.445
ITUPSAT 1 31 Aug 02:29:05 02:33:47 62° 68° (ENE) 02:38:30 437.325
TIGRISAT 31 Aug 02:30:53 02:31:45 11° 314° (NW) 02:32:38 435.000
CUSAT 1 31 Aug 02:36:35 02:37:47 11° 321° (NW) 02:39:03 437.405
JAS-2 31 Aug 02:39:20 02:45:56 70° 292° (WNW) 02:53:19 435.910
QB50P1 31 Aug 02:46:13 02:49:38 24° 302° (WNW) 02:53:03 145.935-145.965
Cosmos 2491 31 Aug 02:48:48 02:54:41 19° 37° (NE) 03:00:32 435.465 / 435.565
STARS 31 Aug 02:53:19 02:55:22 13° 48° (NE) 02:57:25 437.465
POPSAT HIP 1 31 Aug 02:56:46 02:59:57 21° 303° (WNW) 03:03:07 437.405
MOZHAYETS 4 31 Aug 02:58:09 03:01:52 25° 58° (ENE) 03:05:36
SWISSCUBE 31 Aug 03:00:06 03:04:50 72° 255° (WSW) 03:09:37 437.505
RS-15 31 Aug 03:10:10 03:21:58 84° 134° (SE) 03:34:21 29.354- 29.394
BEESAT 31 Aug 03:16:54 03:21:36 57° 258° (WSW) 03:26:19 436.000
DUCHIFAT 1 31 Aug 03:20:28 03:22:59 16° 308° (NW) 03:25:29 145.980
TISAT 1 31 Aug 03:21:06 03:23:29 15° 273° (W) 03:25:52 437.305
ITAMSAT 1 31 Aug 03:29:08 03:32:55 20° 88° (E) 03:36:40 435.822/435.867
QB50P2 31 Aug 03:29:11 03:30:59 12° 311° (NW) 03:32:46 145.880/145.840
POLYITAN 1 31 Aug 03:31:43 03:33:28 12° 311° (NW) 03:35:12 437.675
NANOSAT C BR1 31 Aug 03:36:54 03:38:28 12° 312° (NW) 03:40:02 145.865
SO-50 31 Aug 03:37:45 03:41:58 29° 351° (N) 03:46:07 436.795
Oscar 19 31 Aug 03:45:27 03:50:41 72° 290° (WNW) 03:55:51 437.125/150
Gurwin Techsat 1B 31 Aug 03:46:21 03:51:41 67° 103° (ESE) 03:56:59 435.225
BUGSAT 1 31 Aug 04:00:21 04:02:31 14° 309° (NW) 04:04:38 437.445
KKS-1 31 Aug 04:00:59 04:05:25 63° 68° (ENE) 04:09:53 437.445
ITUPSAT 1 31 Aug 04:08:08 04:12:01 25° 268° (W) 04:15:55 437.325
YUBILEINY 31 Aug 04:19:44 04:21:49 11° 59° (ENE) 04:23:54 435.215
JAS-2 31 Aug 04:25:14 04:30:08 23° 313° (NW) 04:35:25 435.910
STARS 31 Aug 04:26:32 04:30:54 58° 68° (ENE) 04:35:17 437.465
CUBESAT XI-V 31 Aug 04:28:07 04:32:02 27° 59° (ENE) 04:35:58 437.345
MOZHAYETS 4 31 Aug 04:34:13 04:38:45 62° 258° (WSW) 04:43:17
AO-7 31 Aug 04:38:22 04:45:59 38° 95° (E) 04:53:32 29.400- 29.500
SWISSCUBE 31 Aug 04:41:20 04:43:32 13° 276° (W) 04:45:44 437.505
Cosmos 2491 31 Aug 04:45:38 04:54:13 50° 65° (ENE) 05:02:45 435.465 / 435.565
BEESAT 31 Aug 04:59:47 05:00:27 10° 279° (W) 05:01:07 436.000
ITAMSAT 1 31 Aug 05:07:51 05:13:04 84° 288° (WNW) 05:18:16 435.822/435.867
SO-50 31 Aug 05:19:16 05:23:35 33° 16° (NNE) 05:27:47 436.795
RS-15 31 Aug 05:23:41 05:35:34 60° 344° (NNW) 05:47:52 29.354- 29.394
BRITE-PL 31 Aug 05:24:04 05:25:23 11° 76° (ENE) 05:26:41 437.365/2234.400
Oscar 19 31 Aug 05:25:45 05:29:14 18° 312° (NW) 05:32:42 437.125/150
Gurwin Techsat 1B 31 Aug 05:26:47 05:31:19 29° 304° (NW) 05:35:49 435.225
KKS-1 31 Aug 05:38:51 05:42:23 22° 269° (W) 05:45:56 437.445
STRAND 1 31 Aug 05:44:01 05:47:12 17° 47° (NE) 05:50:23 437.568
AO-85 31 Aug 05:54:10 05:59:05 44° 126° (SE) 06:03:41 145.980
Cosmos 2504 31 Aug 05:56:51 06:00:40 14° 69° (ENE) 06:04:23 435.465 / 435.565
STARS 31 Aug 06:04:01 06:07:36 23° 268° (W) 06:11:12 437.465
CUBESAT XI-V 31 Aug 06:04:37 06:09:10 57° 259° (W) 06:13:47 437.345
YUBILEINY 31 Aug 06:07:59 06:16:04 42° 84° (E) 06:24:07 435.215
MOZHAYETS 4 31 Aug 06:16:00 06:16:54 10° 279° (W) 06:17:49
GOMX 1 31 Aug 06:17:33 06:20:13 14° 80° (E) 06:22:50 467.674
NOAA 15 31 Aug 06:25:40 06:29:01 17° 85° (E) 06:32:21 137.62
Cubesat XI-IV 31 Aug 06:26:57 06:29:39 14° 83° (E) 06:32:20 437.490
AO-7 31 Aug 06:31:08 06:39:26 73° 298° (WNW) 06:47:41 29.400- 29.500
CUTE-I 31 Aug 06:37:05 06:40:27 17° 85° (E) 06:43:48 437.470
LilacSat-2 31 Aug 06:39:39 06:41:21 13° 86° (E) 06:43:03 437.200
Cosmos 2491 31 Aug 06:42:46 06:51:17 55° 270° (W) 06:59:48 435.465 / 435.565
HORYU 2 31 Aug 06:43:01 06:47:25 58° 102° (ESE) 06:51:46 437.375
ITAMSAT 1 31 Aug 06:48:08 06:51:55 21° 310° (NW) 06:55:41 435.822/435.867
BRITE-PL 31 Aug 06:59:40 07:05:14 50° 97° (E) 07:10:41 437.365/2234.400
SO-50 31 Aug 06:59:58 07:04:41 78° 39° (NE) 07:09:16 436.795
PRISM 31 Aug 07:16:36 07:18:12 12° 48° (NE) 07:19:48 437.425
STRAND 1 31 Aug 07:20:30 07:25:34 67° 68° (ENE) 07:30:39 437.568
AO-85 31 Aug 07:34:32 07:39:33 56° 326° (NNW) 07:44:12 145.980
RS-15 31 Aug 07:38:14 07:50:21 61° 17° (NNE) 08:02:37 29.354- 29.394
DOVE 4 31 Aug 07:41:12 07:45:35 28° 91° (E) 07:49:44 437.250
Cosmos 2504 31 Aug 07:44:33 07:52:25 55° 92° (E) 07:59:46 435.465 / 435.565
NOAA 18 31 Aug 07:49:16 07:54:33 46° 99° (E) 07:59:48 137.9125
CUSAT 1 31 Aug 07:50:24 07:53:40 14° 45° (NE) 07:57:15 437.405
GOMX 1 31 Aug 07:53:59 07:59:26 65° 101° (E) 08:04:36 467.674
CINEMA 3 31 Aug 07:54:56 07:56:33 12° 81° (E) 07:58:09 145.822/145.860
YUBILEINY 31 Aug 08:03:48 08:12:34 64° 289° (WNW) 08:21:22 435.215
NOAA 15 31 Aug 08:04:19 08:09:41 80° 106° (ESE) 08:15:01 137.62
Cubesat XI-IV 31 Aug 08:05:26 08:10:46 68° 104° (ESE) 08:16:04 437.490
LilacSat-2 31 Aug 08:12:27 08:16:15 87° 287° (WNW) 08:20:01 437.200
CUTE-I 31 Aug 08:16:01 08:21:23 80° 106° (ESE) 08:26:43 437.470
HO-68 31 Aug 08:18:24 08:23:55 23° 87° (E) 08:29:22 435.675
HORYU 2 31 Aug 08:20:04 08:23:43 25° 302° (WNW) 08:27:20 437.375
AO-7 31 Aug 08:24:20 08:31:07 29° 322° (NW) 08:37:53 29.400- 29.500
SEEDS 31 Aug 08:38:05 08:40:40 16° 87° (E) 08:43:15 437.485
BRITE-PL 31 Aug 08:38:19 08:43:38 41° 298° (WNW) 08:48:52 437.365/2234.400
SO-50 31 Aug 08:40:56 08:44:46 26° 241° (WSW) 08:48:30 436.795
Cosmos 2491 31 Aug 08:41:25 08:46:05 16° 295° (WNW) 08:50:45 435.465 / 435.565
TIGRISAT 31 Aug 08:47:23 08:49:20 13° 49° (NE) 08:51:17 435.000
PRISM 31 Aug 08:48:39 08:52:42 58° 69° (ENE) 08:56:48 437.425
AAUSAT CUBESAT 2 31 Aug 08:57:51 09:00:09 14° 86° (E) 09:02:26 437.432
STRAND 1 31 Aug 09:01:03 09:05:13 25° 269° (W) 09:09:25 437.568
BEESAT 3 31 Aug 09:01:36 09:02:57 11° 112° (ESE) 09:04:17 437.485
CANX-2 31 Aug 09:06:59 09:11:00 39° 97° (E) 09:15:00 2200.000
COMPASS 1 31 Aug 09:09:18 09:12:33 21° 90° (E) 09:15:48 437.405
UWE-3 31 Aug 09:11:31 09:13:23 13° 84° (E) 09:15:14 435.000/436.395/437.385
CUTE 1.7 + AOD 2 31 Aug 09:12:16 09:16:16 39° 97° (E) 09:20:16 437.475
UNISAT 6 31 Aug 09:15:41 09:18:59 20° 56° (NE) 09:22:15 437.425
AO-85 31 Aug 09:16:34 09:20:51 29° 349° (N) 09:24:50 145.980
DOVE 4 31 Aug 09:18:36 09:23:38 57° 292° (WNW) 09:28:21 437.250
CUBEBUG 2 31 Aug 09:21:26 09:24:43 21° 90° (E) 09:27:56 437.445
DANDE 31 Aug 09:24:38 09:28:24 20° 57° (ENE) 09:32:54 436.750
CINEMA 3 31 Aug 09:30:05 09:34:41 70° 103° (ESE) 09:39:01 145.822/145.860
NOAA 18 31 Aug 09:30:06 09:35:14 41° 300° (WNW) 09:40:18 137.9125
CUSAT 1 31 Aug 09:31:11 09:37:07 45° 66° (ENE) 09:44:17 437.405
GOMX 1 31 Aug 09:32:28 09:37:09 30° 303° (WNW) 09:41:41 467.674
JAS-2 31 Aug 09:36:04 09:37:21 11° 29° (NNE) 09:38:39 435.910
AIST 1 31 Aug 09:37:18 09:41:32 50° 95° (E) 09:45:49
ISS 31 Aug 09:38:07 09:40:47 23° 157° (SSE) 09:43:28 145.825
Cosmos 2504 31 Aug 09:38:17 09:46:01 46° 294° (WNW) 09:53:17 435.465 / 435.565
NOAA 15 31 Aug 09:44:42 09:48:59 25° 307° (NW) 09:53:16 137.62
Cubesat XI-IV 31 Aug 09:46:00 09:50:31 29° 305° (NW) 09:55:01 437.490
LilacSat-2 31 Aug 09:47:59 09:50:00 14° 306° (NW) 09:52:01 437.200
ANTELSAT 31 Aug 09:51:26 09:55:33 36° 63° (ENE) 09:59:35 437.575/2403.000
RS-15 31 Aug 09:51:35 10:03:58 84° 227° (SW) 10:16:17 29.354- 29.394
CUTE-I 31 Aug 09:56:43 10:00:58 25° 307° (NW) 10:05:13 437.470
DELFI C3 31 Aug 10:03:03 10:04:36 12° 85° (E) 10:06:11 145.870
YUBILEINY 31 Aug 10:04:47 10:11:29 23° 316° (NW) 10:18:11 435.215
HO-68 31 Aug 10:05:29 10:12:44 83° 109° (ESE) 10:19:55 435.675
SEEDS 31 Aug 10:12:43 10:16:58 82° 286° (WNW) 10:21:11 437.485
Oscar 11 31 Aug 10:14:50 10:18:43 31° 95° (E) 10:22:34 145.826/435.025
AO-7 31 Aug 10:16:43 10:21:24 17° 349° (N) 10:26:05 29.400- 29.500
BRITE-PL 31 Aug 10:18:28 10:20:45 13° 320° (NW) 10:23:03 437.365/2234.400
TIGRISAT 31 Aug 10:20:47 10:25:13 58° 69° (ENE) 10:29:35 435.000
PRISM 31 Aug 10:25:11 10:28:22 21° 269° (W) 10:31:34 437.425
BEESAT 2 31 Aug 10:26:34 10:30:08 33° 124° (SE) 10:33:45 435.950
FUNcube-1 31 Aug 10:27:53 10:31:46 37° 97° (E) 10:35:37 145.935
GONETS M04 31 Aug 10:28:08 10:33:13 17° 67° (ENE) 10:38:20
AAUSAT CUBESAT 2 31 Aug 10:32:04 10:36:16 89° 285° (WNW) 10:40:27 437.432
QB50P1 31 Aug 10:35:07 10:38:13 20° 56° (NE) 10:41:20 145.935-145.965
BEESAT 3 31 Aug 10:35:58 10:39:51 62° 132° (SE) 10:43:46 437.485
Cosmos 2499 31 Aug 10:42:38 10:45:52 13° 69° (ENE) 10:49:01 435.465 / 435.565
CANX-2 31 Aug 10:43:01 10:46:48 32° 297° (WNW) 10:50:36 2200.000
COMPASS 1 31 Aug 10:44:20 10:48:28 58° 290° (WNW) 10:52:35 437.405
POPSAT HIP 1 31 Aug 10:45:12 10:48:34 23° 58° (ENE) 10:51:57 437.405
UWE-3 31 Aug 10:46:22 10:50:36 83° 104° (ESE) 10:54:46 435.000/436.395/437.385
CUTE 1.7 + AOD 2 31 Aug 10:48:17 10:52:05 33° 297° (WNW) 10:55:53 437.475
UNISAT 6 31 Aug 10:50:44 10:55:16 78° 256° (WSW) 10:59:44 437.425
ZACube-1 31 Aug 10:51:36 10:55:46 64° 102° (ESE) 10:59:53 437.345
CUBEBUG 2 31 Aug 10:57:32 11:01:45 58° 291° (WNW) 11:05:50 437.445
DOVE 4 31 Aug 10:57:35 11:00:18 15° 314° (NW) 11:02:58 437.250
AO-85 31 Aug 10:58:16 11:02:27 30° 14° (NNE) 11:06:20 145.980
HUMSAT D 31 Aug 11:02:22 11:05:38 22° 92° (E) 11:08:53 437.325/437.525
DANDE 31 Aug 11:06:32 11:11:44 79° 75° (ENE) 11:18:39 436.750
DUCHIFAT 1 31 Aug 11:07:28 11:11:12 31° 62° (ENE) 11:14:57 145.980
CINEMA 3 31 Aug 11:07:52 11:11:23 22° 304° (NW) 11:14:47 145.822/145.860
NOAA 18 31 Aug 11:12:22 11:14:36 13° 323° (NW) 11:16:50 137.9125
CUSAT 1 31 Aug 11:13:10 11:19:18 54° 264° (W) 11:26:40 437.405
ISS 31 Aug 11:13:40 11:16:47 40° 176° (S) 11:19:54 145.825
AIST 1 31 Aug 11:15:40 11:19:24 26° 296° (WNW) 11:23:10
JAS-2 31 Aug 11:15:49 11:20:36 32° 54° (NE) 11:25:51 435.910
QB50P2 31 Aug 11:15:51 11:19:52 41° 65° (ENE) 11:23:53 145.880/145.840
POLYITAN 1 31 Aug 11:18:20 11:22:22 41° 65° (ENE) 11:26:23 437.675
NANOSAT C BR1 31 Aug 11:23:00 11:27:02 43° 66° (ENE) 11:31:04 145.865
ANTELSAT 31 Aug 11:28:00 11:32:15 39° 263° (W) 11:36:26 437.575/2403.000
DELFI C3 31 Aug 11:36:07 11:40:09 81° 104° (ESE) 11:44:11 145.870
Cosmos 2504 31 Aug 11:37:19 11:41:43 16° 321° (NW) 11:45:59 435.465 / 435.565
AIST 2 31 Aug 11:37:42 11:39:12 12° 112° (ESE) 11:40:42 435.215
BUGSAT 1 31 Aug 11:45:23 11:49:12 33° 63° (ENE) 11:53:02 437.445
SEEDS 31 Aug 11:49:34 11:52:04 16° 307° (NW) 11:54:34 437.485
Oscar 11 31 Aug 11:50:54 11:54:58 41° 294° (WNW) 11:59:02 145.826/435.025
HO-68 31 Aug 11:53:41 11:59:53 33° 312° (NW) 12:06:04 435.675
Oscar 19 31 Aug 11:53:54 11:57:15 18° 48° (NE) 12:00:38 437.125/150
TIGRISAT 31 Aug 11:58:34 12:02:15 24° 268° (W) 12:05:52 435.000
Gurwin Techsat 1B 31 Aug 11:59:48 12:01:57 13° 40° (NE) 12:04:07 435.225
BEESAT 2 31 Aug 12:03:56 12:07:51 54° 325° (NW) 12:11:48 435.950
FUNcube-1 31 Aug 12:04:16 12:08:01 33° 297° (WNW) 12:11:43 145.935
RS-15 31 Aug 12:04:32 12:15:01 35° 254° (WSW) 12:25:26 29.354- 29.394
AO-7 31 Aug 12:06:09 12:11:12 18° 17° (NNE) 12:16:15 29.400- 29.500
AUBIESAT-1 31 Aug 12:06:28 12:08:36 14° 92° (E) 12:10:39 437.475
AAUSAT CUBESAT 2 31 Aug 12:08:34 12:11:11 16° 306° (NW) 12:13:49 437.432
QB50P1 31 Aug 12:09:18 12:13:35 75° 256° (WSW) 12:17:52 145.935-145.965
YUBILEINY 31 Aug 12:10:26 12:12:50 11° 349° (N) 12:15:15 435.215
BEESAT 3 31 Aug 12:14:06 12:17:46 35° 334° (NNW) 12:21:27 437.485
M-CUBED/EXP-1 PRIME 31 Aug 12:15:12 12:18:17 20° 95° (E) 12:21:11 437.505
PCSat 31 Aug 12:16:47 12:21:56 46° 121° (ESE) 12:27:08 145.827
GONETS M04 31 Aug 12:19:36 12:28:07 59° 92° (E) 12:36:46
POPSAT HIP 1 31 Aug 12:19:48 12:24:03 62° 257° (WSW) 12:28:18 437.405
COMPASS 1 31 Aug 12:21:40 12:23:14 12° 311° (NW) 12:24:47 437.405
UWE-3 31 Aug 12:23:45 12:26:34 18° 306° (NW) 12:29:22 435.000/436.395/437.385
ZACube-1 31 Aug 12:28:33 12:31:44 21° 303° (WNW) 12:34:53 437.345
UKube-1 31 Aug 12:28:34 12:29:31 11° 83° (E) 12:30:29 .
Cosmos 2499 31 Aug 12:29:49 12:37:20 53° 92° (E) 12:44:23 435.465 / 435.565
UNISAT 6 31 Aug 12:30:32 12:32:44 13° 275° (W) 12:34:55 437.425
CUBEBUG 2 31 Aug 12:35:55 12:37:32 12° 312° (NW) 12:39:07 437.445
HUMSAT D 31 Aug 12:37:34 12:41:33 53° 292° (WNW) 12:45:33 437.325/437.525
AO-85 31 Aug 12:39:02 12:43:36 71° 38° (NE) 12:47:46 145.980
AISAT 31 Aug 12:40:19 12:44:00 24° 92° (E) 12:47:39 437.250
DUCHIFAT 1 31 Aug 12:42:46 12:46:49 42° 262° (W) 12:50:53 145.980
ESTCUBE 1 31 Aug 12:49:03 12:53:27 45° 99° (E) 12:57:49 437.505/2401.250
ISS 31 Aug 12:49:55 12:52:53 31° 196° (SSW) 12:55:49 145.825
DANDE 31 Aug 12:49:56 12:54:17 25° 270° (W) 12:59:33 436.750
50 SAT 31 Aug 12:50:03 12:53:07 25° 94° (E) 12:56:11 437.505
QB50P2 31 Aug 12:51:58 12:55:47 31° 265° (W) 12:59:37 145.880/145.840
POLYITAN 1 31 Aug 12:54:29 12:58:17 31° 265° (W) 13:02:07 437.675
CUSAT 1 31 Aug 12:57:07 13:00:20 14° 282° (WNW) 13:03:48 437.405
NANOSAT C BR1 31 Aug 12:59:09 13:02:54 30° 265° (W) 13:06:41 145.865
JAS-2 31 Aug 13:00:03 13:05:22 63° 258° (WSW) 13:11:19 435.910
DELFI C3 31 Aug 13:11:53 13:14:31 17° 304° (NW) 13:17:10 145.870
AIST 2 31 Aug 13:12:49 13:16:53 61° 131° (SE) 13:21:00 435.215
SPROUT 31 Aug 13:15:56 13:19:38 27° 93° (E) 13:23:19 437.525
ITAMSAT 1 31 Aug 13:17:34 13:20:41 16° 46° (NE) 13:23:46 435.822/435.867
CUBEBUG 1 31 Aug 13:17:49 13:22:14 56° 101° (E) 13:26:35 437.445
BUGSAT 1 31 Aug 13:20:33 13:24:33 39° 262° (W) 13:28:33 437.445
VELOX 1 31 Aug 13:26:50 13:31:16 55° 101° (ESE) 13:35:39 145.980
DX 1 31 Aug 13:29:49 13:34:02 42° 99° (E) 13:38:12 434.975-435.025
Oscar 19 31 Aug 13:30:37 13:35:46 69° 69° (ENE) 13:40:58 437.125/150
Gurwin Techsat 1B 31 Aug 13:35:43 13:40:43 43° 62° (ENE) 13:45:44 435.225
AUBIESAT-1 31 Aug 13:39:36 13:43:46 88° 298° (WNW) 13:47:35 437.475
HO-68 31 Aug 13:42:14 13:45:37 14° 336° (NNW) 13:49:00 435.675
BEESAT 2 31 Aug 13:43:05 13:46:25 24° 348° (NNW) 13:49:46 435.950
QB50P1 31 Aug 13:48:26 13:50:08 12° 276° (W) 13:51:49 145.935-145.965
M-CUBED/EXP-1 PRIME 31 Aug 13:49:05 13:53:16 63° 298° (WNW) 13:57:07 437.505
BEESAT 3 31 Aug 13:53:13 13:56:22 22° 357° (N) 13:59:32 437.485
AO-7 31 Aug 13:54:29 14:01:44 35° 43° (NE) 14:08:58 29.400- 29.500
PCSat 31 Aug 14:00:03 14:05:22 53° 323° (NW) 14:10:43 145.827
UKube-1 31 Aug 14:02:06 14:06:27 65° 104° (ESE) 14:10:46 .
YUBILEINY 31 Aug 14:10:48 14:15:03 14° 25° (NNE) 14:19:17 435.215
O/OREOS (USA 219) 31 Aug 14:13:33 14:17:50 44° 112° (ESE) 14:22:11 437.305
HUMSAT D 31 Aug 14:15:26 14:16:20 11° 312° (NW) 14:17:15 437.325/437.525
AISAT 31 Aug 14:16:24 14:20:48 57° 292° (WNW) 14:25:10 437.250
GONETS M04 31 Aug 14:16:55 14:25:20 47° 297° (WNW) 14:33:51
AO-85 31 Aug 14:20:01 14:23:39 25° 241° (WSW) 14:27:03 145.980
Cosmos 2499 31 Aug 14:23:16 14:30:40 45° 294° (WNW) 14:37:39 435.465 / 435.565
50 SAT 31 Aug 14:23:24 14:26:50 39° 293° (WNW) 14:30:16 437.505
ESTCUBE 1 31 Aug 14:26:07 14:30:10 32° 299° (WNW) 14:34:12 437.505/2401.250
ISS 31 Aug 14:27:14 14:28:38 12° 215° (SW) 14:30:01 145.825
JAS-2 31 Aug 14:49:38 14:52:00 13° 283° (WNW) 14:54:28 435.910
SPROUT 31 Aug 14:51:40 14:55:48 46° 293° (WNW) 14:59:53 437.525
AIST 2 31 Aug 14:51:43 14:55:36 38° 334° (NNW) 14:59:32 435.215
SWISSCUBE 31 Aug 14:53:21 14:56:35 18° 88° (E) 14:59:49 437.505
ITAMSAT 1 31 Aug 14:54:10 14:59:16 62° 67° (ENE) 15:04:23 435.822/435.867
CUBEBUG 1 31 Aug 14:54:34 14:58:16 26° 301° (WNW) 15:01:57 437.445
TISAT 1 31 Aug 14:54:54 14:59:04 56° 101° (ESE) 15:03:11 437.305
VELOX 1 31 Aug 15:03:44 15:07:30 27° 301° (WNW) 15:11:14 145.980
DX 1 31 Aug 15:06:13 15:10:10 33° 299° (WNW) 15:14:05 434.975-435.025
